| time (UTC) | temp F | wind direction | speed MPH | gust MPH | rain 1hr in | rain 24hr in | rain mn in | humidity % | barometer mb |
| 20260505004504 | 62 | 0 | 0.0 | 0.0 | 0.00 | 0.00 | 0.00 | 48 | 1003.9 |
| 20260505004004 | 62 | 0 | 0.0 | 0.0 | 0.00 | 0.00 | 0.00 | 47 | 1003.8 |
| 20260505003504 | 62 | 0 | 0.0 | 0.0 | 0.00 | 0.00 | 0.00 | 47 | 1003.8 |
| 20260505003004 | 63 | 0 | 0.0 | 0.0 | 0.00 | 0.00 | 0.00 | 46 | 1003.7 |
| 20260505001504 | 64 | 0 | 0.0 | 0.0 | 0.00 | 0.00 | 0.00 | 45 | 1003.4 |
| 20260505001004 | 65 | 0 | 0.0 | 0.0 | 0.00 | 0.00 | 0.00 | 44 | 1003.2 |
| 20260505000504 | 65 | 0 | 0.0 | 0.0 | 0.00 | 0.00 | 0.00 | 43 | 1003.1 |
| 20260505000004 | 66 | 0 | 0.0 | 0.0 | 0.00 | 0.00 | 0.00 | 42 | 1003.1 |
| 20260504234504 | 67 | 0 | 0.0 | 0.0 | 0.00 | 0.00 | 0.00 | 40 | 1002.9 |
| 20260504234004 | 67 | 0 | 0.0 | 0.0 | 0.00 | 0.00 | 0.00 | 40 | 1002.9 |
| 20260504233504 | 68 | 0 | 0.0 | 0.0 | 0.00 | 0.00 | 0.00 | 39 | 1002.9 |
| 20260504233004 | 68 | 0 | 0.0 | 0.0 | 0.00 | 0.00 | 0.00 | 39 | 1002.8 |
| 20260504231504 | 69 | 0 | 0.0 | 0.0 | 0.00 | 0.00 | 0.00 | 37 | 1002.5 |
| 20260504231004 | 70 | 0 | 0.0 | 0.0 | 0.00 | 0.00 | 0.00 | 37 | 1002.4 |
| 20260504230504 | 70 | 0 | 0.0 | 0.0 | 0.00 | 0.00 | 0.00 | 37 | 1002.4 |
| 20260504230004 | 70 | 0 | 0.0 | 0.0 | 0.00 | 0.00 | 0.00 | 36 | 1002.4 |
| 20260504224504 | 70 | 0 | 0.0 | 0.0 | 0.00 | 0.00 | 0.00 | 36 | 1002.2 |
| 20260504224004 | 70 | 0 | 0.0 | 0.0 | 0.00 | 0.00 | 0.00 | 36 | 1002.2 |
| 20260504221504 | 71 | 0 | 0.0 | 0.0 | 0.00 | 0.00 | 0.00 | 36 | 1002.0 |
| 20260504221004 | 71 | 0 | 0.0 | 0.0 | 0.00 | 0.00 | 0.00 | 36 | 1002.0 |
| 20260504214510 | 71 | 0 | 0.0 | 0.0 | 0.00 | 0.00 | 0.00 | 36 | 1002.1 |
| 20260504214010 | 71 | 0 | 0.0 | 0.0 | 0.00 | 0.00 | 0.00 | 37 | 1002.1 |
| 20260504213510 | 71 | 0 | 0.0 | 0.0 | 0.00 | 0.00 | 0.00 | 37 | 1002.1 |
| 20260504213010 | 71 | 0 | 0.0 | 0.0 | 0.00 | 0.00 | 0.00 | 37 | 1002.0 |
| 20260504211510 | 72 | 0 | 0.0 | 0.0 | 0.00 | 0.00 | 0.00 | 37 | 1002.1 |
| 20260504211010 | 71 | 0 | 0.0 | 0.0 | 0.00 | 0.00 | 0.00 | 36 | 1002.0 |
| 20260504210510 | 71 | 0 | 0.0 | 0.0 | 0.00 | 0.00 | 0.00 | 36 | 1002.0 |
| 20260504210010 | 71 | 0 | 0.0 | 0.0 | 0.00 | 0.00 | 0.00 | 36 | 1002.0 |
| 20260504203509 | 72 | 0 | 0.0 | 0.0 | 0.00 | 0.00 | 0.00 | 35 | 1002.0 |
| 20260504203009 | 73 | 0 | 0.0 | 0.0 | 0.00 | 0.00 | 0.00 | 35 | 1002.1 |
| 20260504201509 | 73 | 0 | 0.0 | 0.0 | 0.00 | 0.00 | 0.00 | 35 | 1001.8 |
| 20260504201009 | 73 | 0 | 0.0 | 0.0 | 0.00 | 0.00 | 0.00 | 34 | 1001.9 |
| 20260504200509 | 73 | 0 | 0.0 | 0.0 | 0.00 | 0.00 | 0.00 | 34 | 1001.9 |
| 20260504194509 | 72 | 0 | 0.0 | 0.0 | 0.00 | 0.00 | 0.00 | 35 | 1002.0 |
| 20260504194010 | 72 | 0 | 0.0 | 0.0 | 0.00 | 0.00 | 0.00 | 35 | 1002.0 |
| 20260504193509 | 71 | 0 | 0.0 | 0.0 | 0.00 | 0.00 | 0.00 | 35 | 1002.0 |
| 20260504193009 | 71 | 0 | 0.0 | 0.0 | 0.00 | 0.00 | 0.00 | 35 | 1002.1 |
| 20260504191509 | 69 | 0 | 0.0 | 0.0 | 0.00 | 0.00 | 0.00 | 36 | 1002.3 |
| 20260504191009 | 69 | 0 | 0.0 | 0.0 | 0.00 | 0.00 | 0.00 | 36 | 1002.5 |
| 20260504190509 | 69 | 0 | 0.0 | 0.0 | 0.00 | 0.00 | 0.00 | 36 | 1002.4 |
| 20260504190009 | 69 | 0 | 0.0 | 0.0 | 0.00 | 0.00 | 0.00 | 37 | 1002.3 |
| 20260504184509 | 68 | 0 | 0.0 | 0.0 | 0.00 | 0.00 | 0.00 | 37 | 1002.4 |
| 20260504183509 | 68 | 0 | 0.0 | 0.0 | 0.00 | 0.00 | 0.00 | 36 | 1002.3 |
| 20260504183008 | 68 | 0 | 0.0 | 0.0 | 0.00 | 0.00 | 0.00 | 36 | 1002.4 |
| 20260504181008 | 70 | 0 | 0.0 | 0.0 | 0.00 | 0.00 | 0.00 | 35 | 1002.2 |
| 20260504180508 | 70 | 0 | 0.0 | 0.0 | 0.00 | 0.00 | 0.00 | 35 | 1002.2 |
| 20260504180009 | 70 | 0 | 0.0 | 0.0 | 0.00 | 0.00 | 0.00 | 35 | 1002.3 |
| 20260504174509 | 70 | 0 | 0.0 | 0.0 | 0.00 | 0.00 | 0.00 | 33 | 1002.3 |
| 20260504174008 | 69 | 0 | 0.0 | 0.0 | 0.00 | 0.00 | 0.00 | 35 | 1002.3 |
| 20260504173508 | 71 | 0 | 0.0 | 0.0 | 0.00 | 0.00 | 0.00 | 34 | 1002.5 |
| 20260504173009 | 72 | 0 | 0.0 | 0.0 | 0.00 | 0.00 | 0.00 | 34 | 1002.5 |
| 20260504171508 | 72 | 0 | 0.0 | 0.0 | 0.00 | 0.00 | 0.00 | 33 | 1002.4 |
| 20260504171009 | 72 | 0 | 0.0 | 0.0 | 0.00 | 0.00 | 0.00 | 32 | 1002.5 |
| 20260504170508 | 71 | 0 | 0.0 | 0.0 | 0.00 | 0.00 | 0.00 | 35 | 1002.6 |
| 20260504151008 | 66 | 0 | 0.0 | 0.0 | 0.00 | 0.00 | 0.00 | 43 | 1003.7 |
| 20260504150507 | 65 | 0 | 0.0 | 0.0 | 0.00 | 0.00 | 0.00 | 41 | 1003.8 |
| 20260504141008 | 62 | 0 | 0.0 | 0.0 | 0.00 | 0.00 | 0.00 | 45 | 1004.7 |
| 20260504140507 | 61 | 0 | 0.0 | 0.0 | 0.00 | 0.00 | 0.00 | 47 | 1004.8 |
| 20260504130507 | 57 | 0 | 0.0 | 0.0 | 0.00 | 0.00 | 0.00 | 51 | 1005.4 |
| 20260504110507 | 46 | 0 | 0.0 | 0.0 | 0.00 | 0.00 | 0.00 | 64 | 1006.1 |
| 20260504100507 | 39 | 0 | 0.0 | 0.0 | 0.00 | 0.00 | 0.00 | 75 | 1006.0 |
| 20260504081506 | 41 | 0 | 0.0 | 0.0 | 0.00 | 0.00 | 0.00 | 69 | 1006.0 |
| 20260504050505 | 38 | 0 | 0.0 | 0.0 | 0.00 | 0.00 | 0.00 | 76 | 1005.8 |
| 20260504044505 | 38 | 0 | 0.0 | 0.0 | 0.00 | 0.00 | 0.00 | 76 | 1005.8 |
| 20260504044005 | 38 | 0 | 0.0 | 0.0 | 0.00 | 0.00 | 0.00 | 76 | 1005.8 |
| 20260504043005 | 38 | 0 | 0.0 | 0.0 | 0.00 | 0.00 | 0.00 | 74 | 1005.7 |
| 20260504041005 | 37 | 0 | 0.0 | 0.0 | 0.00 | 0.00 | 0.00 | 76 | 1005.6 |
| 20260504040505 | 37 | 0 | 0.0 | 0.0 | 0.00 | 0.00 | 0.00 | 76 | 1005.6 |
| 20260504040006 | 37 | 0 | 0.0 | 0.0 | 0.00 | 0.00 | 0.00 | 75 | 1005.6 |
| 20260504034505 | 38 | 0 | 0.0 | 0.0 | 0.00 | 0.00 | 0.00 | 76 | 1005.5 |
| 20260504034006 | 38 | 0 | 0.0 | 0.0 | 0.00 | 0.00 | 0.00 | 76 | 1005.5 |
| 20260504033505 | 37 | 0 | 0.0 | 0.0 | 0.00 | 0.00 | 0.00 | 75 | 1005.5 |
| 20260504033005 | 37 | 0 | 0.0 | 0.0 | 0.00 | 0.00 | 0.00 | 76 | 1005.4 |
| 20260504031505 | 37 | 0 | 0.0 | 0.0 | 0.00 | 0.00 | 0.00 | 78 | 1005.3 |
| 20260504031005 | 37 | 0 | 0.0 | 0.0 | 0.00 | 0.00 | 0.00 | 78 | 1005.3 |
| 20260504030505 | 37 | 0 | 0.0 | 0.0 | 0.00 | 0.00 | 0.00 | 79 | 1005.2 |
| 20260504030005 | 38 | 0 | 0.0 | 0.0 | 0.00 | 0.00 | 0.00 | 79 | 1005.2 |
| 20260504024504 | 39 | 0 | 0.0 | 0.0 | 0.00 | 0.00 | 0.00 | 76 | 1005.2 |
| 20260504024005 | 39 | 0 | 0.0 | 0.0 | 0.00 | 0.00 | 0.00 | 74 | 1005.2 |
| 20260504023506 | 39 | 0 | 0.0 | 0.0 | 0.00 | 0.00 | 0.00 | 74 | 1005.3 |
| 20260504023005 | 39 | 0 | 0.0 | 0.0 | 0.00 | 0.00 | 0.00 | 73 | 1005.3 |
| 20260504021505 | 40 | 0 | 0.0 | 0.0 | 0.00 | 0.00 | 0.00 | 71 | 1005.2 |
| 20260504021005 | 40 | 0 | 0.0 | 0.0 | 0.00 | 0.00 | 0.00 | 70 | 1005.2 |
| 20260504020504 | 41 | 0 | 0.0 | 0.0 | 0.00 | 0.00 | 0.00 | 70 | 1005.3 |
| 20260504014504 | 42 | 0 | 0.0 | 0.0 | 0.00 | 0.02 | 0.00 | 68 | 1005.3 |
| 20260504013504 | 43 | 0 | 0.0 | 0.0 | 0.00 | 0.02 | 0.00 | 67 | 1005.3 |
| 20260504013004 | 43 | 0 | 0.0 | 0.0 | 0.00 | 0.02 | 0.00 | 65 | 1005.3 |
| 20260504011504 | 44 | 0 | 0.0 | 0.0 | 0.00 | 0.02 | 0.00 | 61 | 1005.1 |
| 20260504011005 | 45 | 0 | 0.0 | 0.0 | 0.00 | 0.02 | 0.00 | 61 | 1005.0 |
| 20260504010504 | 45 | 0 | 0.0 | 0.0 | 0.00 | 0.02 | 0.00 | 58 | 1005.0 |
| 20260504010004 | 46 | 0 | 0.0 | 0.0 | 0.00 | 0.04 | 0.00 | 57 | 1004.9 |